This demonstration page uses our WeatherBlox Daily Observations layout. Learn more.

Left ArrowRight Arrow

39.92423, -83.80882

Hourly Observations for November 7, 2020

Temp ( °F °C ) Dew Point ( °F °C ) Humidity (%) Winds ( mph kmh ) Pressure ( in mb ) Visibility ( mi km ) Precip ( " mm )
12:56 am 00:56 Clear 47 8.3 42 5.6 83 83 SSW 5 7 30.26 1025 10 16 N/A
1:56 am 01:56 Clear 40 4.4 38 3.3 93 93 N N/A 30.27 1025 10 16 N/A
2:56 am 02:56 Clear 41 5 40 4.4 96 96 ENE 3 6 30.29 1026 10 16 N/A
3:56 am 03:56 Clear 37 2.8 36 2.2 96 96 N N/A 30.29 1026 10 16 N/A
4:56 am 04:56 Clear 42 5.6 41 5 96 96 S 5 7 30.28 1026 10 16 N/A
5:56 am 05:56 Clear 36 2.2 36 2.2 100 100 E 3 6 30.31 1026 10 16 N/A
6:56 am 06:56 Clear 37 2.8 37 2.8 100 100 N N/A 30.33 1027 10 16 N/A
7:56 am 07:56 Sunny 37 2.8 37 2.8 100 100 SE 3 6 30.34 1028 9 14 N/A
8:56 am 08:56 Sunny 51 10.6 48 8.9 89 89 SE 3 6 30.34 1028 10 16 N/A
9:56 am 09:56 Sunny 60 15.6 47 8.3 62 62 S 5 7 30.34 1028 10 16 N/A
10:56 am 10:56 Sunny 66 18.9 47 8.3 50 50 SSE 6 9 30.33 1027 10 16 N/A
11:56 am 11:56 Sunny 69 20.6 43 6.1 39 39 SW 9 15 30.31 1026 10 16 N/A
12:56 pm 12:56 Sunny 72 22.2 43 6.1 35 35 SW 9 15 30.27 1025 10 16 N/A
1:56 pm 13:56 Sunny 72 22.2 45 7.2 38 38 VRB 6 9 30.26 1025 10 16 N/A
2:56 pm 14:56 Sunny 72 22.2 44 6.7 37 37 VRB 5 7 30.25 1024 10 16 N/A
3:56 pm 15:56 Sunny 72 22.2 43 6.1 35 35 VRB 3 6 30.26 1025 10 16 N/A
4:56 pm 16:56 Sunny 68 20 45 7.2 44 44 N N/A 30.26 1025 10 16 N/A
5:56 pm 17:56 Clear 58 14.4 44 6.7 60 60 N N/A 30.27 1025 10 16 N/A
6:56 pm 18:56 Clear 51 10.6 44 6.7 77 77 N N/A 30.29 1026 10 16 N/A
7:56 pm 19:56 Clear 49 9.4 43 6.1 80 80 SSE 3 6 30.28 1025 10 16 N/A
8:56 pm 20:56 Clear 48 8.9 43 6.1 83 83 E 3 6 30.27 1025 10 16 N/A
9:56 pm 21:56 Clear 44 6.7 42 5.6 93 93 SE 5 7 30.28 1025 10 16 N/A
10:56 pm 22:56 Clear 44 6.7 42 5.6 93 93 ESE 3 6 30.27 1025 10 16 N/A
11:56 pm 23:56 Clear 43 6.1 41 5 93 93 SSE 3 6 30.27 1025 10 16 N/A

Powered by AerisWeather